FDX5062 KSGF-KMEM

Flight info

Callsign FDX5062
Flight time 0h 43m
Altitude 27000
Route WHOLL BRBBQ3
Aircraft B738/M-SDE2E3FGHIRWXY/LB1

Departure

Time 2026-05-04 23:20
Airport Springfield Branson National Airport (KSGF)

Arrival

Time 2026-05-05 00:04
Airport Memphis International Airport (KMEM)
Time Latitude Longitude Altitude Speed Heading
2026-05-04 23:00 37.25120 -93.38388 1273 ft 0 kts 292°
2026-05-04 23:14 37.25117 -93.38378 1273 ft 4 kts 293°
2026-05-04 23:14 37.25105 -93.38349 1273 ft 4 kts 306°
2026-05-04 23:14 37.25087 -93.38325 1273 ft 4 kts 335°
2026-05-04 23:15 37.25067 -93.38321 1274 ft 1 kts 21°
2026-05-04 23:18 37.25070 -93.38319 1273 ft 2 kts 21°
2026-05-04 23:18 37.25109 -93.38300 1274 ft 9 kts 21°
2026-05-04 23:18 37.25192 -93.38260 1272 ft 15 kts 21°
2026-05-04 23:18 37.25291 -93.38212 1272 ft 15 kts 21°
2026-05-04 23:19 37.25347 -93.38184 1273 ft 8 kts 31°
2026-05-04 23:19 37.25368 -93.38127 1270 ft 8 kts 97°
2026-05-04 23:19 37.25347 -93.38065 1269 ft 8 kts 130°
2026-05-04 23:19 37.25295 -93.38059 1269 ft 8 kts 198°
2026-05-04 23:20 37.25028 -93.38191 1277 ft 83 kts 202°
2026-05-04 23:20 37.24243 -93.38587 1281 ft 157 kts 203°
2026-05-04 23:20 37.23106 -93.39187 1800 ft 186 kts 203°
2026-05-04 23:20 37.21908 -93.39820 2868 ft 184 kts 204°
2026-05-04 23:21 37.20687 -93.40438 3678 ft 200 kts 200°
2026-05-04 23:21 37.19211 -93.40497 3976 ft 229 kts 169°
2026-05-04 23:21 37.17802 -93.39412 4513 ft 249 kts 137°
2026-05-04 23:21 37.16847 -93.37530 5127 ft 262 kts 123°
2026-05-04 23:22 37.16029 -93.35504 5843 ft 265 kts 122°
2026-05-04 23:22 37.15227 -93.33415 6637 ft 268 kts 122°
2026-05-04 23:22 37.14432 -93.31293 7350 ft 271 kts 121°
2026-05-04 23:22 37.13661 -93.29106 8006 ft 279 kts 113°
2026-05-04 23:23 37.13285 -93.26680 8715 ft 286 kts 101°
2026-05-04 23:23 37.13042 -93.24202 9421 ft 288 kts 102°
2026-05-04 23:23 37.12709 -93.21703 10013 ft 292 kts 106°
2026-05-04 23:23 37.12208 -93.19226 10615 ft 298 kts 110°
2026-05-04 23:24 37.11521 -93.16700 10826 ft 323 kts 114°
2026-05-04 23:24 37.10621 -93.14015 11045 ft 347 kts 117°
2026-05-04 23:24 37.09550 -93.11238 11522 ft 359 kts 120°
2026-05-04 23:24 37.08375 -93.08460 12248 ft 364 kts 121°
2026-05-04 23:25 37.07128 -93.05687 13013 ft 367 kts 122°
2026-05-04 23:25 37.05826 -93.02908 13691 ft 373 kts 123°
2026-05-04 23:25 37.04477 -93.00100 14392 ft 378 kts 123°
2026-05-04 23:25 37.03097 -92.97271 15059 ft 385 kts 123°
2026-05-04 23:26 37.01704 -92.94439 15739 ft 389 kts 123°
2026-05-04 23:26 37.00280 -92.91555 16435 ft 392 kts 123°
2026-05-04 23:26 36.98830 -92.88629 17042 ft 399 kts 123°
2026-05-04 23:26 36.97362 -92.85666 17656 ft 403 kts 123°
2026-05-04 23:27 36.95872 -92.82673 18271 ft 408 kts 123°
2026-05-04 23:27 36.94365 -92.79641 18874 ft 412 kts 123°
2026-05-04 23:27 36.92847 -92.76588 19464 ft 416 kts 123°
2026-05-04 23:27 36.91311 -92.73504 20066 ft 419 kts 123°
2026-05-04 23:28 36.89761 -92.70393 20656 ft 423 kts 123°
2026-05-04 23:28 36.88200 -92.67261 21214 ft 427 kts 123°
2026-05-04 23:28 36.86645 -92.64146 21724 ft 431 kts 123°
2026-05-04 23:28 36.85053 -92.60957 22251 ft 434 kts 123°
2026-05-04 23:29 36.83448 -92.57748 22784 ft 437 kts 123°
2026-05-04 23:29 36.81834 -92.54523 23305 ft 440 kts 123°
2026-05-04 23:29 36.80210 -92.51280 23883 ft 440 kts 123°
2026-05-04 23:29 36.78588 -92.48046 24507 ft 439 kts 123°
2026-05-04 23:30 36.76970 -92.44823 25132 ft 438 kts 123°
2026-05-04 23:30 36.75899 -92.42690 25495 ft 439 kts 123°
2026-05-04 23:30 36.73750 -92.38419 26246 ft 438 kts 123°
2026-05-04 23:30 36.72135 -92.35210 26771 ft 438 kts 123°
2026-05-04 23:31 36.70504 -92.31975 26794 ft 442 kts 123°
2026-05-04 23:31 36.68876 -92.28746 26822 ft 438 kts 123°
2026-05-04 23:31 36.67257 -92.25540 26819 ft 436 kts 123°
2026-05-04 23:31 36.65640 -92.22339 26836 ft 437 kts 123°
2026-05-04 23:32 36.64021 -92.19138 26833 ft 438 kts 123°
2026-05-04 23:32 36.62398 -92.15934 26835 ft 438 kts 123°
2026-05-04 23:32 36.60772 -92.12728 26827 ft 439 kts 123°
2026-05-04 23:32 36.59144 -92.09518 26825 ft 439 kts 123°
2026-05-04 23:33 36.57536 -92.06352 26822 ft 438 kts 123°
2026-05-04 23:33 36.55910 -92.03154 26826 ft 437 kts 123°
2026-05-04 23:33 36.54284 -91.99957 26820 ft 437 kts 123°
2026-05-04 23:33 36.52663 -91.96773 26829 ft 436 kts 123°
2026-05-04 23:34 36.51043 -91.93595 26820 ft 435 kts 123°
2026-05-04 23:34 36.49427 -91.90429 26820 ft 434 kts 123°
2026-05-04 23:34 36.47812 -91.87267 26819 ft 433 kts 123°
2026-05-04 23:34 36.46201 -91.84114 26829 ft 431 kts 123°
2026-05-04 23:35 36.44614 -91.81011 26835 ft 431 kts 123°
2026-05-04 23:35 36.43008 -91.77874 26839 ft 431 kts 123°
2026-05-04 23:35 36.41399 -91.74735 26842 ft 431 kts 123°
2026-05-04 23:35 36.39789 -91.71598 26846 ft 431 kts 123°
2026-05-04 23:36 36.38177 -91.68460 26850 ft 432 kts 123°
2026-05-04 23:36 36.36560 -91.65314 26845 ft 432 kts 123°
2026-05-04 23:36 36.34942 -91.62168 26839 ft 431 kts 123°
2026-05-04 23:36 36.33349 -91.59074 26658 ft 423 kts 123°
2026-05-04 23:37 36.31778 -91.56027 26422 ft 416 kts 123°
2026-05-04 23:37 36.30220 -91.53006 26037 ft 414 kts 123°
2026-05-04 23:37 36.28674 -91.50010 25676 ft 411 kts 123°
2026-05-04 23:37 36.27156 -91.47072 25308 ft 408 kts 123°
2026-05-04 23:38 36.25631 -91.44121 24932 ft 406 kts 123°
2026-05-04 23:38 36.24111 -91.41185 24548 ft 404 kts 123°
2026-05-04 23:38 36.22601 -91.38268 24175 ft 401 kts 123°
2026-05-04 23:38 36.21097 -91.35366 23793 ft 399 kts 123°
2026-05-04 23:39 36.19603 -91.32489 23426 ft 396 kts 123°
2026-05-04 23:39 36.17982 -91.29752 23025 ft 392 kts 138°
2026-05-04 23:39 36.15761 -91.27929 22780 ft 378 kts 159°
2026-05-04 23:39 36.13386 -91.26548 22387 ft 377 kts 158°
2026-05-04 23:40 36.11064 -91.25166 22034 ft 375 kts 158°
2026-05-04 23:40 36.08720 -91.23758 21663 ft 373 kts 158°
2026-05-04 23:40 36.06394 -91.22354 21304 ft 371 kts 158°
2026-05-04 23:40 36.04083 -91.20957 20949 ft 369 kts 158°
2026-05-04 23:41 36.01781 -91.19564 20590 ft 367 kts 158°
2026-05-04 23:41 35.99496 -91.18182 20226 ft 365 kts 158°
2026-05-04 23:41 35.97225 -91.16808 19883 ft 362 kts 158°
2026-05-04 23:41 35.94999 -91.15463 19531 ft 360 kts 158°
2026-05-04 23:42 35.92758 -91.14108 19181 ft 358 kts 158°
2026-05-04 23:42 35.90531 -91.12763 18831 ft 356 kts 158°
2026-05-04 23:42 35.88312 -91.11424 18478 ft 353 kts 158°
2026-05-04 23:42 35.86111 -91.10097 18132 ft 351 kts 158°
2026-05-04 23:43 35.83921 -91.08777 17795 ft 349 kts 158°
2026-05-04 23:43 35.81748 -91.07469 17446 ft 347 kts 158°
2026-05-04 23:43 35.79590 -91.06176 17190 ft 342 kts 158°
2026-05-04 23:43 35.77459 -91.04902 16847 ft 340 kts 158°
2026-05-04 23:44 35.75336 -91.03635 16419 ft 340 kts 158°
2026-05-04 23:44 35.73201 -91.02363 16077 ft 338 kts 158°
2026-05-04 23:44 35.71116 -91.01119 15728 ft 337 kts 158°
2026-05-04 23:44 35.69017 -90.99867 15391 ft 334 kts 158°
2026-05-04 23:45 35.66934 -90.98626 15071 ft 332 kts 158°
2026-05-04 23:45 35.64863 -90.97391 14732 ft 330 kts 158°
2026-05-04 23:45 35.62807 -90.96167 14393 ft 328 kts 158°
2026-05-04 23:45 35.60760 -90.94949 14057 ft 325 kts 158°
2026-05-04 23:46 35.58728 -90.93741 13712 ft 323 kts 158°
2026-05-04 23:46 35.56711 -90.92543 13379 ft 322 kts 158°
2026-05-04 23:46 35.54701 -90.91350 13023 ft 320 kts 158°
2026-05-04 23:46 35.52725 -90.90174 12900 ft 310 kts 158°
2026-05-04 23:47 35.50861 -90.88912 12733 ft 306 kts 145°
2026-05-04 23:47 35.49568 -90.86880 12499 ft 310 kts 118°
2026-05-04 23:47 35.48748 -90.84441 12221 ft 309 kts 115°
2026-05-04 23:47 35.47937 -90.82001 11920 ft 308 kts 115°
2026-05-04 23:48 35.47127 -90.79572 11608 ft 307 kts 116°
2026-05-04 23:48 35.46326 -90.77162 11317 ft 305 kts 116°
2026-05-04 23:48 35.45529 -90.74760 11024 ft 303 kts 116°
2026-05-04 23:48 35.44733 -90.72370 10728 ft 302 kts 116°
2026-05-04 23:49 35.43940 -90.69994 10439 ft 300 kts 116°
2026-05-04 23:49 35.43192 -90.67620 10187 ft 298 kts 109°
2026-05-04 23:49 35.42887 -90.65129 10064 ft 294 kts 97°
2026-05-04 23:49 35.42744 -90.62698 9952 ft 284 kts 98°
2026-05-04 23:50 35.42589 -90.60331 9688 ft 272 kts 98°
2026-05-04 23:50 35.42447 -90.58060 9440 ft 261 kts 98°
2026-05-04 23:50 35.42318 -90.55898 9228 ft 247 kts 98°
2026-05-04 23:50 35.42207 -90.53841 9064 ft 239 kts 98°
2026-05-04 23:51 35.42102 -90.51816 8875 ft 236 kts 98°
2026-05-04 23:51 35.42037 -90.50495 8762 ft 234 kts 98°
2026-05-04 23:51 35.41941 -90.48517 8569 ft 231 kts 98°
2026-05-04 23:51 35.41847 -90.46546 8417 ft 233 kts 98°
2026-05-04 23:52 35.41750 -90.44544 8255 ft 237 kts 98°
2026-05-04 23:52 35.41658 -90.42530 8074 ft 236 kts 98°
2026-05-04 23:52 35.41565 -90.40527 7882 ft 234 kts 98°
2026-05-04 23:52 35.41476 -90.38542 7729 ft 231 kts 98°
2026-05-04 23:53 35.41391 -90.36581 7553 ft 230 kts 98°
2026-05-04 23:53 35.41306 -90.34631 7400 ft 227 kts 98°
2026-05-04 23:53 35.41222 -90.32688 7242 ft 230 kts 99°
2026-05-04 23:53 35.41134 -90.30739 7088 ft 235 kts 98°
2026-05-04 23:54 35.41046 -90.28727 6928 ft 236 kts 98°
2026-05-04 23:54 35.40962 -90.26739 6761 ft 232 kts 98°
2026-05-04 23:54 35.40876 -90.24785 6620 ft 226 kts 99°
2026-05-04 23:54 35.40788 -90.22885 6481 ft 222 kts 98°
2026-05-04 23:55 35.40717 -90.20979 6365 ft 226 kts 98°
2026-05-04 23:55 35.40637 -90.19038 6245 ft 229 kts 99°
2026-05-04 23:55 35.39466 -90.15759 5980 ft 202 kts 148°
2026-05-04 23:56 35.38372 -90.14683 5825 ft 203 kts 148°
2026-05-04 23:56 35.37286 -90.13610 5657 ft 204 kts 148°
2026-05-04 23:56 35.36182 -90.12519 5493 ft 205 kts 148°
2026-05-04 23:56 35.35068 -90.11424 5315 ft 205 kts 148°
2026-05-04 23:57 35.33948 -90.10334 5142 ft 205 kts 148°
2026-05-04 23:57 35.32856 -90.09272 4939 ft 195 kts 148°
2026-05-04 23:57 35.31824 -90.08261 4741 ft 186 kts 148°
2026-05-04 23:57 35.30826 -90.07277 4571 ft 184 kts 148°
2026-05-04 23:58 35.29821 -90.06290 4417 ft 188 kts 148°
2026-05-04 23:58 35.28791 -90.05275 4262 ft 192 kts 148°
2026-05-04 23:58 35.27769 -90.04267 4096 ft 189 kts 148°
2026-05-04 23:58 35.26762 -90.03269 3996 ft 182 kts 148°
2026-05-04 23:59 35.25800 -90.02307 4007 ft 177 kts 148°
2026-05-04 23:59 35.24833 -90.01357 4029 ft 181 kts 148°
2026-05-04 23:59 35.23842 -90.00393 4037 ft 184 kts 146°
2026-05-04 23:59 35.22891 -89.99344 4025 ft 183 kts 149°
2026-05-05 00:00 35.21771 -89.98794 4031 ft 169 kts 178°
2026-05-05 00:00 35.21001 -89.98705 4010 ft 168 kts 181°
2026-05-05 00:00 35.19457 -89.98738 4019 ft 166 kts 186°
2026-05-05 00:00 35.18241 -89.98789 3421 ft 186 kts 185°
2026-05-05 00:01 35.16903 -89.98835 2739 ft 197 kts 184°
2026-05-05 00:01 35.15578 -89.98867 2428 ft 190 kts 184°
2026-05-05 00:01 35.14284 -89.98893 2165 ft 181 kts 183°
2026-05-05 00:01 35.13051 -89.98913 1937 ft 173 kts 181°
2026-05-05 00:02 35.11877 -89.98891 1708 ft 165 kts 181°
2026-05-05 00:02 35.10766 -89.98866 1501 ft 154 kts 180°
2026-05-05 00:02 35.09708 -89.98844 1352 ft 152 kts 180°
2026-05-05 00:02 35.08664 -89.98821 1142 ft 146 kts 180°
2026-05-05 00:03 35.07705 -89.98800 929 ft 131 kts 180°
2026-05-05 00:03 35.06816 -89.98780 765 ft 125 kts 182°
2026-05-05 00:03 35.05974 -89.98767 599 ft 119 kts 179°
2026-05-05 00:03 35.05174 -89.98750 409 ft 115 kts 180°
2026-05-05 00:04 35.04370 -89.98731 329 ft 112 kts 180°
2026-05-05 00:04 35.03705 -89.98720 329 ft 70 kts 179°
2026-05-05 00:04 35.03377 -89.98708 332 ft 28 kts 177°
2026-05-05 00:04 35.03200 -89.98666 327 ft 19 kts 157°
2026-05-05 00:05 35.03130 -89.98619 326 ft 8 kts 139°
2026-05-05 00:05 35.03096 -89.98569 329 ft 8 kts 136°
2026-05-05 00:05 35.03079 -89.98510 326 ft 9 kts 73°
2026-05-05 00:05 35.03136 -89.98475 326 ft 10 kts
2026-05-05 00:06 35.03206 -89.98476 326 ft 10 kts 359°
2026-05-05 00:06 35.03279 -89.98475 325 ft 12 kts 360°
2026-05-05 00:06 35.03380 -89.98478 327 ft 18 kts 358°
2026-05-05 00:06 35.03519 -89.98483 326 ft 21 kts 359°
2026-05-05 00:07 35.03664 -89.98488 326 ft 20 kts 357°
2026-05-05 00:07 35.03809 -89.98492 328 ft 21 kts 359°
2026-05-05 00:07 35.03953 -89.98496 327 ft 21 kts 358°
2026-05-05 00:07 35.04095 -89.98501 329 ft 20 kts 359°
2026-05-05 00:08 35.04232 -89.98503 327 ft 19 kts 359°
2026-05-05 00:08 35.04365 -89.98507 327 ft 19 kts 358°
2026-05-05 00:08 35.04494 -89.98511 328 ft 18 kts 360°
2026-05-05 00:08 35.04618 -89.98512 325 ft 18 kts 360°
2026-05-05 00:09 35.04738 -89.98512 329 ft 17 kts 359°
2026-05-05 00:09 35.04853 -89.98515 329 ft 16 kts 357°
2026-05-05 00:09 35.04965 -89.98520 326 ft 16 kts 359°
2026-05-05 00:09 35.05072 -89.98519 326 ft 15 kts
2026-05-05 00:10 35.05187 -89.98515 327 ft 19 kts
2026-05-05 00:10 35.05320 -89.98514 327 ft 19 kts
2026-05-05 00:10 35.05450 -89.98514 328 ft 18 kts 360°
2026-05-05 00:10 35.05576 -89.98511 326 ft 18 kts 360°
2026-05-05 00:11 35.05697 -89.98509 326 ft 17 kts
2026-05-05 00:11 35.05814 -89.98508 325 ft 17 kts 359°
2026-05-05 00:11 35.05927 -89.98513 325 ft 16 kts 357°
2026-05-05 00:11 35.06015 -89.98479 327 ft 14 kts 62°
2026-05-05 00:12 35.06023 -89.98366 330 ft 14 kts 90°
2026-05-05 00:12 35.06022 -89.98246 325 ft 15 kts 90°
2026-05-05 00:12 35.06021 -89.98111 330 ft 16 kts 91°
2026-05-05 00:12 35.06020 -89.97974 328 ft 16 kts 90°
2026-05-05 00:13 35.06009 -89.97840 330 ft 16 kts 97°
2026-05-05 00:13 35.05993 -89.97709 326 ft 15 kts 102°
2026-05-05 00:13 35.05973 -89.97591 328 ft 13 kts 84°
2026-05-05 00:13 35.06045 -89.97542 327 ft 13 kts
2026-05-05 00:14 35.06141 -89.97544 326 ft 14 kts 359°
2026-05-05 00:14 35.06238 -89.97546 325 ft 15 kts 358°
2026-05-05 00:14 35.06334 -89.97545 326 ft 12 kts
2026-05-05 00:14 35.06381 -89.97588 327 ft 9 kts 271°
2026-05-05 00:15 35.06381 -89.97604 330 ft 0 kts 269°